Hourly Data Report for September 11, 2019

All times are specified in Local Standard Time (LST). Add 1 hour to adjust for Daylight Saving Time where and when it is observed.

EUREKA CLIMATE
NUNAVUT
Current Station Operator: ECCC - MSC

79°59'21.000" N
85°56'02.000" W
10.00 m
2401199
71613
NEK

Download Data

Hourly Data (September 2019)
Hourly Data Report for September 11, 2019
TIME Temp Definition
°C
Dew Point Definition
°C
Rel Hum Definition
%
Wind Dir Definition
10's deg

Wind Spd Definition
km/h
Visibility Definition
km
Stn Press Definition
kPa
Hmdx Definition


Wind Chill Definition


Weather Definition


00:00 -1.5 -3.9 84 20 3   101.05   -3 LegendNANA
01:00 -1.6 -4.2 82 15 2   101.08   -2 LegendNANA
02:00 -2.3 -4.7 83 7 6   101.11   -5 LegendNANA
03:00 -2.2 -4.6 84 10 2   101.12   -3 LegendNANA
04:00 -2.2 -5.0 81 8 6   101.14   -5 LegendNANA
05:00 -2.0 -4.3 84 28 19   101.20   -8 LegendNANA
06:00 -2.2 -5.0 81 28 4   101.23   -4 LegendNANA
07:00 -2.1 -4.8 82 31 6   101.24   -4 LegendNANA
08:00 -2.2 -4.3 85 28 23   101.26   -8 LegendNANA
09:00 -2.3 -4.4 85 28 25   101.24   -9 LegendNANA
10:00 -2.1 -4.1 86 29 23   101.27   -8 LegendNANA
11:00 -2.1 -4.3 85 28 21   101.28   -8 LegendNANA
12:00 -2.1 -3.8 88 28 17   101.29   -7 LegendNANA
13:00 -2.3 -4.1 87 29 18   101.31   -8 LegendNANA
14:00 -2.3 -4.6 84 36 15   101.32   -7 LegendNANA
15:00 -2.4 -4.6 85 1 17   101.33   -8 LegendNANA
16:00 -2.2 -4.5 84 36 10   101.36   -6 LegendNANA
17:00 -2.3 -4.4 86 36 14   101.39   -7 LegendNANA
18:00 -2.8 -4.5 88 36 15   101.39   -8 LegendNANA
19:00 -2.8 -4.5 88 1 13   101.41   -7 LegendNANA
20:00 -3.0 -4.4 90 36 14   101.42   -8 LegendNANA
21:00 -3.3 -4.8 89 35 9   101.44   -7 LegendNANA
22:00 -3.0 -4.6 89 1 7   101.42   -6 LegendNANA
23:00 -3.2 -4.4 91 35 15   101.43   -8 LegendNANA

Notes on Data Quality.

Legend

  • E = Estimated
  • M = Missing
  • NA = Not Available*
  • [empty] = Indicates an unobserved value
Date modified: